| time (UTC) | temp F | wind direction | speed knots | gust knots | rain 1hr in | rain 24hr in | rain mn in | humidity % | barometer mb |
| 20260508014003 | 57 | 10 | 2.6 | 5.2 | 0.00 | 0.00 | 0.00 | 83 | 1014.9 |
| 20260508013503 | 57 | 12 | 2.6 | 5.2 | 0.00 | 0.00 | 0.00 | 83 | 1014.6 |
| 20260508013003 | 57 | 6 | 2.6 | 5.2 | 0.00 | 0.00 | 0.00 | 83 | 1014.6 |
| 20260508012503 | 57 | 4 | 1.7 | 5.2 | 0.00 | 0.00 | 0.00 | 83 | 1014.7 |
| 20260508012004 | 57 | 12 | 1.7 | 3.5 | 0.00 | 0.00 | 0.00 | 83 | 1014.7 |
| 20260508011503 | 57 | 17 | 2.6 | 3.5 | 0.00 | 0.00 | 0.00 | 83 | 1014.9 |
| 20260508011003 | 57 | 14 | 1.7 | 3.5 | 0.00 | 0.00 | 0.00 | 82 | 1014.7 |
| 20260508010503 | 57 | 13 | 1.7 | 4.3 | 0.00 | 0.00 | 0.00 | 82 | 1014.6 |
| 20260508010003 | 57 | 14 | 1.7 | 4.3 | 0.00 | 0.00 | 0.00 | 82 | 1014.8 |
| 20260508005503 | 57 | 13 | 1.7 | 3.5 | 0.00 | 0.00 | 0.00 | 82 | 1014.7 |
| 20260508005003 | 58 | 12 | 2.6 | 5.2 | 0.00 | 0.00 | 0.00 | 82 | 1014.8 |
| 20260508004503 | 58 | 15 | 2.6 | 5.2 | 0.00 | 0.00 | 0.00 | 82 | 1014.8 |
| 20260508004003 | 58 | 17 | 2.6 | 4.3 | 0.00 | 0.00 | 0.00 | 82 | 1015.0 |
| 20260508003503 | 58 | 22 | 2.6 | 4.3 | 0.00 | 0.00 | 0.00 | 81 | 1014.7 |
| 20260508003003 | 58 | 28 | 2.6 | 4.3 | 0.00 | 0.00 | 0.00 | 81 | 1014.7 |
| 20260508002503 | 58 | 25 | 2.6 | 4.3 | 0.00 | 0.00 | 0.00 | 81 | 1014.7 |
| 20260508002003 | 58 | 22 | 2.6 | 4.3 | 0.00 | 0.00 | 0.00 | 81 | 1014.7 |
| 20260508001503 | 58 | 20 | 2.6 | 5.2 | 0.00 | 0.00 | 0.00 | 81 | 1014.8 |
| 20260508001003 | 58 | 18 | 2.6 | 5.2 | 0.00 | 0.00 | 0.00 | 81 | 1014.7 |
| 20260508000503 | 58 | 17 | 3.5 | 5.2 | 0.00 | 0.00 | 0.00 | 81 | 1014.7 |
| 20260508000003 | 57 | 15 | 2.6 | 5.2 | 0.00 | 0.00 | 0.00 | 81 | 1014.6 |
| 20260507235503 | 57 | 12 | 2.6 | 5.2 | 0.00 | 0.00 | 0.00 | 80 | 1014.8 |
| 20260507235003 | 57 | 3 | 2.6 | 4.3 | 0.00 | 0.00 | 0.00 | 80 | 1014.8 |
| 20260507234503 | 58 | 358 | 2.6 | 4.3 | 0.00 | 0.00 | 0.00 | 80 | 1014.8 |
| 20260507234003 | 58 | 6 | 1.7 | 4.3 | 0.00 | 0.00 | 0.00 | 80 | 1014.8 |
| 20260507233503 | 58 | 14 | 1.7 | 4.3 | 0.00 | 0.00 | 0.00 | 79 | 1014.8 |
| 20260507233003 | 58 | 17 | 2.6 | 4.3 | 0.00 | 0.00 | 0.00 | 79 | 1015.0 |
| 20260507232503 | 58 | 11 | 2.6 | 5.2 | 0.00 | 0.00 | 0.00 | 79 | 1014.9 |
| 20260507232003 | 58 | 4 | 2.6 | 5.2 | 0.00 | 0.00 | 0.00 | 79 | 1014.8 |
| 20260507231503 | 58 | 8 | 2.6 | 4.3 | 0.00 | 0.00 | 0.00 | 79 | 1015.1 |
| 20260507231003 | 58 | 11 | 2.6 | 4.3 | 0.00 | 0.00 | 0.00 | 79 | 1014.8 |
| 20260507230503 | 58 | 6 | 1.7 | 4.3 | 0.00 | 0.00 | 0.00 | 79 | 1014.7 |
| 20260507230003 | 58 | 14 | 1.7 | 4.3 | 0.00 | 0.00 | 0.00 | 78 | 1014.7 |
| 20260507225503 | 58 | 17 | 2.6 | 4.3 | 0.00 | 0.00 | 0.00 | 79 | 1014.9 |
| 20260507225003 | 58 | 19 | 2.6 | 4.3 | 0.00 | 0.00 | 0.00 | 79 | 1014.8 |
| 20260507224504 | 58 | 24 | 2.6 | 4.3 | 0.00 | 0.00 | 0.00 | 78 | 1014.8 |
| 20260507224003 | 58 | 23 | 2.6 | 4.3 | 0.00 | 0.00 | 0.00 | 78 | 1014.6 |
| 20260507223503 | 58 | 18 | 2.6 | 4.3 | 0.00 | 0.00 | 0.00 | 77 | 1014.9 |
| 20260507223003 | 58 | 18 | 1.7 | 4.3 | 0.00 | 0.00 | 0.00 | 77 | 1015.0 |
| 20260507222503 | 58 | 20 | 1.7 | 4.3 | 0.00 | 0.00 | 0.00 | 77 | 1014.8 |
| 20260507222003 | 58 | 21 | 1.7 | 4.3 | 0.00 | 0.00 | 0.00 | 76 | 1014.8 |
| 20260507221503 | 58 | 25 | 0.9 | 2.6 | 0.00 | 0.00 | 0.00 | 76 | 1014.8 |
| 20260507221003 | 58 | 21 | 1.7 | 5.2 | 0.00 | 0.00 | 0.00 | 76 | 1014.8 |
| 20260507220503 | 58 | 10 | 1.7 | 5.2 | 0.00 | 0.00 | 0.00 | 76 | 1014.5 |
| 20260507220003 | 58 | 10 | 1.7 | 3.5 | 0.00 | 0.00 | 0.00 | 76 | 1014.7 |
| 20260507215503 | 58 | 18 | 2.6 | 3.5 | 0.00 | 0.00 | 0.00 | 76 | 1014.6 |
| 20260507215003 | 58 | 22 | 2.6 | 4.3 | 0.00 | 0.00 | 0.00 | 76 | 1014.6 |
| 20260507214503 | 58 | 21 | 2.6 | 4.3 | 0.00 | 0.00 | 0.00 | 76 | 1014.5 |
| 20260507214003 | 58 | 15 | 1.7 | 3.5 | 0.00 | 0.00 | 0.00 | 76 | 1014.7 |
| 20260507213503 | 58 | 12 | 1.7 | 4.3 | 0.00 | 0.00 | 0.00 | 76 | 1014.5 |
| 20260507213003 | 58 | 19 | 1.7 | 4.3 | 0.00 | 0.00 | 0.00 | 76 | 1014.4 |
| 20260507212503 | 58 | 27 | 2.6 | 5.2 | 0.00 | 0.00 | 0.00 | 75 | 1014.3 |
| 20260507212003 | 58 | 20 | 3.5 | 5.2 | 0.00 | 0.00 | 0.00 | 76 | 1014.4 |
| 20260507211503 | 58 | 9 | 2.6 | 5.2 | 0.00 | 0.00 | 0.00 | 76 | 1014.6 |
| 20260507211003 | 58 | 14 | 2.6 | 3.5 | 0.00 | 0.00 | 0.00 | 75 | 1014.4 |
| 20260507210503 | 58 | 22 | 2.6 | 3.5 | 0.00 | 0.00 | 0.00 | 74 | 1014.4 |
| 20260507210003 | 59 | 336 | 1.7 | 3.5 | 0.00 | 0.00 | 0.00 | 74 | 1014.4 |
| 20260507205503 | 59 | 289 | 0.9 | 2.6 | 0.00 | 0.00 | 0.00 | 73 | 1014.3 |
| 20260507205003 | 59 | 313 | 0.0 | 2.6 | 0.00 | 0.00 | 0.00 | 73 | 1014.3 |
| 20260507204503 | 60 | 30 | 0.0 | 0.9 | 0.00 | 0.00 | 0.00 | 72 | 1014.2 |
| 20260507204003 | 60 | 296 | 0.0 | 0.9 | 0.00 | 0.00 | 0.00 | 72 | 1013.9 |
| 20260507203503 | 60 | 225 | 0.0 | 0.9 | 0.00 | 0.00 | 0.00 | 71 | 1014.1 |
| 20260507203003 | 60 | 63 | 0.0 | 1.7 | 0.00 | 0.00 | 0.00 | 71 | 1014.1 |
| 20260507202503 | 60 | 37 | 0.0 | 1.7 | 0.00 | 0.00 | 0.00 | 71 | 1014.3 |
| 20260507202003 | 60 | 356 | 0.0 | 1.7 | 0.00 | 0.00 | 0.00 | 71 | 1014.0 |
| 20260507201503 | 60 | 4 | 0.0 | 1.7 | 0.00 | 0.00 | 0.00 | 70 | 1014.1 |
| 20260507201003 | 60 | 105 | 0.0 | 1.7 | 0.00 | 0.00 | 0.00 | 70 | 1014.2 |
| 20260507200503 | 61 | 82 | 0.9 | 2.6 | 0.00 | 0.00 | 0.00 | 70 | 1014.1 |
| 20260507200003 | 61 | 96 | 0.9 | 2.6 | 0.00 | 0.00 | 0.00 | 69 | 1014.0 |
| 20260507195503 | 61 | 126 | 0.9 | 3.5 | 0.00 | 0.00 | 0.00 | 68 | 1013.8 |
| 20260507195003 | 61 | 121 | 2.6 | 5.2 | 0.00 | 0.00 | 0.00 | 68 | 1013.9 |
| 20260507194503 | 62 | 125 | 3.5 | 8.7 | 0.00 | 0.00 | 0.00 | 68 | 1013.7 |
| 20260507194003 | 62 | 129 | 3.5 | 8.7 | 0.00 | 0.00 | 0.00 | 68 | 1013.9 |
| 20260507193503 | 62 | 122 | 2.6 | 7.8 | 0.00 | 0.00 | 0.00 | 68 | 1013.6 |
| 20260507193003 | 62 | 85 | 2.6 | 4.3 | 0.00 | 0.00 | 0.00 | 68 | 1014.0 |
| 20260507192503 | 62 | 38 | 2.6 | 5.2 | 0.00 | 0.00 | 0.00 | 68 | 1013.8 |
| 20260507192003 | 62 | 26 | 3.5 | 5.2 | 0.00 | 0.00 | 0.00 | 68 | 1013.7 |
| 20260507191503 | 62 | 41 | 2.6 | 5.2 | 0.00 | 0.00 | 0.00 | 67 | 1013.4 |
| 20260507191003 | 63 | 93 | 2.6 | 5.2 | 0.00 | 0.00 | 0.00 | 67 | 1013.3 |
| 20260507190503 | 63 | 122 | 3.5 | 7.8 | 0.00 | 0.00 | 0.00 | 66 | 1013.2 |
| 20260507190004 | 63 | 129 | 3.5 | 8.7 | 0.00 | 0.00 | 0.00 | 66 | 1013.0 |
| 20260507185503 | 63 | 135 | 3.5 | 8.7 | 0.00 | 0.00 | 0.00 | 66 | 1012.9 |
| 20260507185003 | 64 | 142 | 2.6 | 7.8 | 0.00 | 0.00 | 0.00 | 65 | 1012.8 |
| 20260507184503 | 64 | 147 | 2.6 | 4.3 | 0.00 | 0.00 | 0.00 | 65 | 1012.7 |
| 20260507184003 | 64 | 140 | 3.5 | 7.8 | 0.00 | 0.00 | 0.00 | 65 | 1012.7 |
| 20260507183503 | 64 | 138 | 3.5 | 7.8 | 0.00 | 0.00 | 0.00 | 65 | 1012.7 |
| 20260507183003 | 65 | 140 | 3.5 | 8.7 | 0.00 | 0.00 | 0.00 | 64 | 1012.6 |
| 20260507182503 | 65 | 138 | 4.3 | 9.6 | 0.00 | 0.00 | 0.00 | 64 | 1012.4 |
| 20260507182003 | 66 | 142 | 4.3 | 9.6 | 0.00 | 0.00 | 0.00 | 63 | 1012.3 |
| 20260507181503 | 66 | 151 | 4.3 | 7.8 | 0.00 | 0.00 | 0.00 | 62 | 1012.4 |
| 20260507181003 | 67 | 146 | 5.2 | 12.2 | 0.00 | 0.00 | 0.00 | 62 | 1012.2 |
| 20260507180503 | 67 | 148 | 5.2 | 12.2 | 0.00 | 0.00 | 0.00 | 60 | 1012.4 |
| 20260507180003 | 68 | 165 | 3.5 | 7.8 | 0.00 | 0.00 | 0.00 | 58 | 1012.4 |
| 20260507175503 | 68 | 174 | 2.6 | 5.2 | 0.00 | 0.00 | 0.00 | 57 | 1012.1 |
| 20260507175003 | 68 | 172 | 2.6 | 4.3 | 0.00 | 0.00 | 0.00 | 56 | 1011.9 |
| 20260507174503 | 69 | 169 | 2.6 | 4.3 | 0.00 | 0.00 | 0.00 | 55 | 1011.9 |
| 20260507174003 | 69 | 165 | 2.6 | 5.2 | 0.00 | 0.00 | 0.00 | 55 | 1011.7 |
| 20260507173503 | 69 | 163 | 3.5 | 5.2 | 0.00 | 0.00 | 0.00 | 53 | 1011.6 |
| 20260507173003 | 70 | 164 | 3.5 | 5.2 | 0.00 | 0.00 | 0.00 | 53 | 1011.8 |
| 20260507172503 | 70 | 161 | 2.6 | 5.2 | 0.00 | 0.00 | 0.00 | 53 | 1011.5 |
| 20260507172003 | 71 | 162 | 2.6 | 4.3 | 0.00 | 0.00 | 0.00 | 52 | 1011.8 |
| 20260507171503 | 71 | 171 | 2.6 | 4.3 | 0.00 | 0.00 | 0.00 | 52 | 1011.7 |
| 20260507171003 | 71 | 169 | 2.6 | 5.2 | 0.00 | 0.00 | 0.00 | 50 | 1011.8 |
| 20260507170503 | 71 | 164 | 2.6 | 5.2 | 0.00 | 0.00 | 0.00 | 51 | 1011.5 |
| 20260507170003 | 71 | 169 | 2.6 | 5.2 | 0.00 | 0.00 | 0.00 | 50 | 1011.5 |
| 20260507165503 | 71 | 168 | 2.6 | 5.2 | 0.00 | 0.00 | 0.00 | 50 | 1011.5 |
| 20260507165003 | 71 | 187 | 2.6 | 5.2 | 0.00 | 0.00 | 0.00 | 51 | 1011.5 |
| 20260507164503 | 71 | 190 | 2.6 | 5.2 | 0.00 | 0.00 | 0.00 | 49 | 1011.7 |
| 20260507164003 | 71 | 201 | 3.5 | 10.4 | 0.00 | 0.00 | 0.00 | 48 | 1011.6 |
| 20260507163503 | 71 | 205 | 3.5 | 10.4 | 0.00 | 0.00 | 0.00 | 48 | 1011.7 |
| 20260507163003 | 72 | 178 | 3.5 | 7.8 | 0.00 | 0.00 | 0.00 | 47 | 1011.6 |
| 20260507162503 | 72 | 169 | 2.6 | 7.8 | 0.00 | 0.00 | 0.00 | 48 | 1011.7 |
| 20260507162003 | 72 | 185 | 3.5 | 7.0 | 0.00 | 0.00 | 0.00 | 47 | 1011.7 |
| 20260507161503 | 72 | 187 | 3.5 | 7.0 | 0.00 | 0.00 | 0.00 | 49 | 1011.7 |
| 20260507161003 | 72 | 170 | 2.6 | 7.0 | 0.00 | 0.00 | 0.00 | 48 | 1011.5 |
| 20260507160503 | 72 | 169 | 2.6 | 7.8 | 0.00 | 0.00 | 0.00 | 51 | 1011.6 |
| 20260507160020 | 72 | 188 | 3.5 | 8.7 | 0.00 | 0.00 | 0.00 | 50 | 1011.7 |
| 20260507155503 | 72 | 198 | 5.2 | 12.2 | 0.00 | 0.00 | 0.00 | 47 | 1011.5 |
| 20260507155007 | 72 | 191 | 4.3 | 12.2 | 0.00 | 0.00 | 0.00 | 51 | 1011.7 |
| 20260507154503 | 72 | 169 | 4.3 | 9.6 | 0.00 | 0.00 | 0.00 | 50 | 1011.5 |
| 20260507154003 | 72 | 170 | 4.3 | 9.6 | 0.00 | 0.00 | 0.00 | 50 | 1011.6 |
| 20260507153504 | 72 | 171 | 3.5 | 10.4 | 0.00 | 0.00 | 0.00 | 48 | 1011.5 |
| 20260507153003 | 73 | 164 | 4.3 | 10.4 | 0.00 | 0.00 | 0.00 | 49 | 1011.5 |
| 20260507152503 | 73 | 164 | 4.3 | 11.3 | 0.00 | 0.00 | 0.00 | 50 | 1011.4 |
| 20260507152003 | 73 | 170 | 5.2 | 11.3 | 0.00 | 0.00 | 0.00 | 49 | 1011.4 |
| 20260507151503 | 73 | 168 | 5.2 | 10.4 | 0.00 | 0.00 | 0.00 | 52 | 1011.3 |
| 20260507151003 | 73 | 171 | 5.2 | 9.6 | 0.00 | 0.00 | 0.00 | 51 | 1011.5 |
| 20260507150503 | 73 | 177 | 4.3 | 9.6 | 0.00 | 0.00 | 0.00 | 51 | 1011.4 |
| 20260507150003 | 72 | 175 | 3.5 | 9.6 | 0.00 | 0.00 | 0.00 | 52 | 1011.5 |
| 20260507145503 | 72 | 174 | 4.3 | 10.4 | 0.00 | 0.00 | 0.00 | 52 | 1011.3 |
| 20260507145003 | 73 | 172 | 5.2 | 12.2 | 0.00 | 0.00 | 0.00 | 50 | 1011.4 |
| 20260507144503 | 73 | 169 | 5.2 | 12.2 | 0.00 | 0.00 | 0.00 | 51 | 1011.5 |
| 20260507144003 | 72 | 168 | 5.2 | 9.6 | 0.00 | 0.00 | 0.00 | 51 | 1011.4 |
| 20260507143003 | 71 | 202 | 3.5 | 9.6 | 0.00 | 0.00 | 0.00 | 49 | 1011.6 |
| 20260507142503 | 72 | 201 | 3.5 | 7.8 | 0.00 | 0.00 | 0.00 | 48 | 1011.6 |
| 20260507142003 | 73 | 208 | 4.3 | 9.6 | 0.00 | 0.00 | 0.00 | 48 | 1011.8 |
| 20260507141503 | 74 | 186 | 3.5 | 9.6 | 0.00 | 0.00 | 0.00 | 49 | 1011.7 |
| 20260507141003 | 74 | 173 | 3.5 | 8.7 | 0.00 | 0.00 | 0.00 | 50 | 1011.7 |
| 20260507140503 | 74 | 178 | 3.5 | 8.7 | 0.00 | 0.00 | 0.00 | 50 | 1011.8 |
| 20260507140003 | 74 | 191 | 4.3 | 11.3 | 0.00 | 0.00 | 0.00 | 50 | 1011.8 |
| 20260507135503 | 74 | 198 | 4.3 | 11.3 | 0.00 | 0.00 | 0.00 | 52 | 1011.8 |
| 20260507135003 | 74 | 186 | 3.5 | 10.4 | 0.00 | 0.00 | 0.00 | 52 | 1011.8 |
| 20260507134503 | 74 | 183 | 3.5 | 10.4 | 0.00 | 0.00 | 0.00 | 47 | 1011.8 |
| 20260507134004 | 73 | 177 | 3.5 | 10.4 | 0.00 | 0.00 | 0.00 | 53 | 1011.8 |
| 20260507133503 | 72 | 181 | 2.6 | 8.7 | 0.00 | 0.00 | 0.00 | 52 | 1011.6 |
| 20260507133003 | 72 | 202 | 3.5 | 8.7 | 0.00 | 0.00 | 0.00 | 51 | 1011.8 |
| 20260507132503 | 72 | 216 | 5.2 | 12.2 | 0.00 | 0.00 | 0.00 | 49 | 1011.7 |
| 20260507132003 | 72 | 225 | 7.8 | 14.8 | 0.00 | 0.00 | 0.00 | 50 | 1011.9 |
| 20260507131503 | 73 | 226 | 7.8 | 14.8 | 0.00 | 0.00 | 0.00 | 48 | 1012.0 |
| 20260507131003 | 73 | 211 | 6.1 | 13.0 | 0.00 | 0.00 | 0.00 | 47 | 1012.0 |
| 20260507130503 | 73 | 204 | 5.2 | 13.0 | 0.00 | 0.00 | 0.00 | 54 | 1011.9 |
| 20260507130003 | 72 | 216 | 4.3 | 11.3 | 0.00 | 0.00 | 0.00 | 50 | 1011.5 |
| 20260507125503 | 73 | 226 | 5.2 | 11.3 | 0.00 | 0.00 | 0.00 | 51 | 1012.0 |
| 20260507125003 | 73 | 242 | 6.1 | 12.2 | 0.00 | 0.00 | 0.00 | 50 | 1012.0 |
| 20260507124503 | 73 | 251 | 6.1 | 12.2 | 0.00 | 0.00 | 0.00 | 53 | 1011.9 |
| 20260507124003 | 72 | 240 | 5.2 | 13.0 | 0.00 | 0.00 | 0.00 | 54 | 1011.9 |
| 20260507123503 | 72 | 239 | 4.3 | 13.0 | 0.00 | 0.00 | 0.00 | 54 | 1012.0 |
| 20260507123003 | 72 | 244 | 5.2 | 13.0 | 0.00 | 0.00 | 0.00 | 55 | 1012.1 |
| 20260507122503 | 72 | 229 | 5.2 | 13.0 | 0.00 | 0.00 | 0.00 | 53 | 1012.1 |
| 20260507122004 | 71 | 213 | 4.3 | 13.0 | 0.00 | 0.00 | 0.00 | 55 | 1012.1 |
| 20260507121503 | 71 | 207 | 3.5 | 9.6 | 0.00 | 0.00 | 0.00 | 56 | 1012.0 |
| 20260507121003 | 71 | 203 | 4.3 | 9.6 | 0.00 | 0.00 | 0.00 | 52 | 1012.2 |
| 20260507120503 | 72 | 195 | 3.5 | 8.7 | 0.00 | 0.00 | 0.00 | 54 | 1011.9 |
| 20260507120005 | 72 | 176 | 4.3 | 8.7 | 0.00 | 0.00 | 0.00 | 54 | 1012.1 |
| 20260507115503 | 72 | 179 | 5.2 | 11.3 | 0.00 | 0.00 | 0.00 | 55 | 1012.0 |
| 20260507115003 | 71 | 210 | 6.1 | 11.3 | 0.00 | 0.00 | 0.00 | 54 | 1012.0 |
| 20260507114503 | 71 | 238 | 6.1 | 12.2 | 0.00 | 0.00 | 0.00 | 55 | 1012.2 |
| 20260507114003 | 71 | 238 | 5.2 | 12.2 | 0.00 | 0.00 | 0.00 | 54 | 1012.1 |
| 20260507113503 | 71 | 213 | 5.2 | 12.2 | 0.00 | 0.00 | 0.00 | 56 | 1012.1 |
| 20260507113004 | 70 | 205 | 5.2 | 12.2 | 0.00 | 0.00 | 0.00 | 55 | 1012.2 |
| 20260507112503 | 70 | 206 | 5.2 | 10.4 | 0.00 | 0.00 | 0.00 | 54 | 1012.4 |
| 20260507112003 | 70 | 205 | 4.3 | 10.4 | 0.00 | 0.00 | 0.00 | 55 | 1012.6 |
| 20260507111504 | 70 | 221 | 4.3 | 10.4 | 0.00 | 0.00 | 0.00 | 52 | 1012.4 |
| 20260507111003 | 71 | 223 | 5.2 | 10.4 | 0.00 | 0.00 | 0.00 | 52 | 1012.3 |
| 20260507110503 | 71 | 227 | 5.2 | 13.0 | 0.00 | 0.00 | 0.00 | 55 | 1012.4 |
| 20260507110003 | 70 | 228 | 5.2 | 13.0 | 0.00 | 0.00 | 0.00 | 54 | 1012.4 |
| 20260507105503 | 70 | 219 | 3.5 | 11.3 | 0.00 | 0.00 | 0.00 | 57 | 1012.6 |
| 20260507105003 | 69 | 204 | 3.5 | 13.0 | 0.00 | 0.00 | 0.00 | 57 | 1012.8 |
| 20260507104504 | 69 | 203 | 4.3 | 13.0 | 0.00 | 0.00 | 0.00 | 54 | 1012.7 |
| 20260507104003 | 69 | 214 | 6.1 | 13.0 | 0.00 | 0.00 | 0.00 | 56 | 1012.8 |
| 20260507103503 | 69 | 237 | 6.1 | 13.9 | 0.00 | 0.00 | 0.00 | 54 | 1012.9 |
| 20260507102503 | 68 | 221 | 5.2 | 12.2 | 0.00 | 0.00 | 0.00 | 57 | 1013.1 |
| 20260507102003 | 68 | 220 | 6.1 | 16.5 | 0.00 | 0.00 | 0.00 | 58 | 1012.9 |
| 20260507101503 | 68 | 217 | 7.0 | 16.5 | 0.00 | 0.00 | 0.00 | 55 | 1013.1 |
| 20260507101003 | 68 | 215 | 7.0 | 13.9 | 0.00 | 0.00 | 0.00 | 58 | 1013.1 |
| 20260507100503 | 68 | 227 | 7.8 | 14.8 | 0.00 | 0.00 | 0.00 | 59 | 1013.0 |
| 20260507100003 | 68 | 222 | 7.8 | 14.8 | 0.00 | 0.00 | 0.00 | 60 | 1013.0 |
| 20260507095503 | 68 | 203 | 6.1 | 14.8 | 0.00 | 0.00 | 0.00 | 62 | 1013.0 |
| 20260507095003 | 68 | 207 | 5.2 | 11.3 | 0.00 | 0.00 | 0.00 | 60 | 1013.1 |
| 20260507094503 | 68 | 208 | 5.2 | 11.3 | 0.00 | 0.00 | 0.00 | 61 | 1013.2 |
| 20260507094003 | 68 | 199 | 4.3 | 10.4 | 0.00 | 0.00 | 0.00 | 64 | 1012.8 |
| 20260507093503 | 68 | 201 | 4.3 | 10.4 | 0.00 | 0.00 | 0.00 | 63 | 1013.0 |
| 20260507093003 | 68 | 209 | 4.3 | 7.8 | 0.00 | 0.00 | 0.00 | 62 | 1013.2 |
| 20260507092503 | 68 | 223 | 4.3 | 10.4 | 0.00 | 0.00 | 0.00 | 63 | 1012.9 |
| 20260507092003 | 67 | 217 | 5.2 | 13.0 | 0.00 | 0.00 | 0.00 | 61 | 1012.9 |
| 20260507091503 | 68 | 228 | 4.3 | 13.0 | 0.00 | 0.00 | 0.00 | 60 | 1012.9 |
| 20260507091003 | 68 | 247 | 4.3 | 7.8 | 0.00 | 0.00 | 0.00 | 62 | 1012.8 |
| 20260507090503 | 67 | 230 | 5.2 | 13.0 | 0.00 | 0.00 | 0.00 | 62 | 1012.9 |
| 20260507090004 | 67 | 222 | 6.1 | 13.0 | 0.00 | 0.00 | 0.00 | 61 | 1012.7 |
| 20260507085503 | 66 | 216 | 4.3 | 12.2 | 0.00 | 0.00 | 0.00 | 66 | 1013.0 |
| 20260507085003 | 66 | 191 | 3.5 | 8.7 | 0.00 | 0.00 | 0.00 | 70 | 1013.0 |
| 20260507084503 | 66 | 188 | 3.5 | 8.7 | 0.00 | 0.00 | 0.00 | 70 | 1013.0 |
| 20260507084003 | 65 | 181 | 3.5 | 8.7 | 0.00 | 0.00 | 0.00 | 72 | 1013.0 |
| 20260507083503 | 65 | 183 | 4.3 | 8.7 | 0.00 | 0.00 | 0.00 | 76 | 1013.0 |
| 20260507083003 | 64 | 192 | 4.3 | 9.6 | 0.00 | 0.00 | 0.00 | 76 | 1012.9 |
| 20260507082503 | 64 | 199 | 4.3 | 9.6 | 0.00 | 0.00 | 0.00 | 78 | 1012.8 |
| 20260507082003 | 64 | 197 | 3.5 | 8.7 | 0.00 | 0.00 | 0.00 | 77 | 1013.1 |
| 20260507081503 | 64 | 182 | 3.5 | 7.0 | 0.00 | 0.00 | 0.00 | 78 | 1013.0 |
| 20260507081003 | 64 | 174 | 3.5 | 7.0 | 0.00 | 0.00 | 0.00 | 79 | 1012.8 |
| 20260507080503 | 64 | 171 | 3.5 | 7.8 | 0.00 | 0.00 | 0.00 | 79 | 1012.7 |
| 20260507075503 | 64 | 172 | 3.5 | 7.8 | 0.00 | 0.00 | 0.00 | 80 | 1012.6 |
| 20260507075003 | 64 | 167 | 3.5 | 7.8 | 0.00 | 0.00 | 0.00 | 81 | 1012.9 |
| 20260507074503 | 63 | 182 | 3.5 | 7.8 | 0.00 | 0.00 | 0.00 | 82 | 1012.8 |
| 20260507074003 | 63 | 204 | 3.5 | 7.0 | 0.00 | 0.00 | 0.00 | 83 | 1013.0 |
| 20260507073503 | 63 | 207 | 2.6 | 7.8 | 0.00 | 0.00 | 0.00 | 82 | 1012.8 |
| 20260507073003 | 63 | 212 | 2.6 | 7.8 | 0.00 | 0.00 | 0.00 | 83 | 1012.8 |
| 20260507072503 | 62 | 193 | 2.6 | 5.2 | 0.00 | 0.00 | 0.00 | 83 | 1012.6 |
| 20260507072003 | 62 | 178 | 1.7 | 5.2 | 0.00 | 0.00 | 0.00 | 85 | 1012.6 |
| 20260507071503 | 62 | 176 | 1.7 | 3.5 | 0.00 | 0.00 | 0.00 | 86 | 1012.6 |
| 20260507071003 | 61 | 169 | 1.7 | 3.5 | 0.00 | 0.00 | 0.00 | 86 | 1012.6 |
| 20260507070503 | 60 | 179 | 1.7 | 3.5 | 0.00 | 0.00 | 0.00 | 87 | 1012.3 |
| 20260507070006 | 60 | 192 | 2.6 | 3.5 | 0.00 | 0.00 | 0.00 | 87 | 1012.3 |
| 20260507065503 | 60 | 229 | 2.6 | 3.5 | 0.00 | 0.00 | 0.00 | 88 | 1012.3 |
| 20260507065003 | 60 | 218 | 1.7 | 3.5 | 0.00 | 0.00 | 0.00 | 88 | 1012.4 |
| 20260507064503 | 59 | 189 | 0.9 | 3.5 | 0.00 | 0.00 | 0.00 | 89 | 1012.5 |
| 20260507064003 | 59 | 212 | 0.9 | 3.5 | 0.00 | 0.00 | 0.00 | 89 | 1012.5 |
| 20260507063503 | 59 | 218 | 1.7 | 5.2 | 0.00 | 0.00 | 0.00 | 90 | 1012.3 |
| 20260507063003 | 58 | 68 | 0.9 | 5.2 | 0.00 | 0.00 | 0.00 | 91 | 1012.3 |
| 20260507062503 | 58 | 47 | 0.0 | 1.7 | 0.00 | 0.00 | 0.00 | 91 | 1012.1 |
| 20260507062003 | 58 | 47 | 0.0 | 1.7 | 0.00 | 0.00 | 0.00 | 91 | 1012.2 |
| 20260507061503 | 57 | 47 | 0.0 | 1.7 | 0.00 | 0.00 | 0.00 | 91 | 1012.2 |
| 20260507061003 | 57 | 47 | 0.0 | 1.7 | 0.00 | 0.00 | 0.00 | 91 | 1012.3 |
| 20260507060503 | 57 | 47 | 0.0 | 1.7 | 0.00 | 0.00 | 0.00 | 91 | 1012.5 |
| 20260507060003 | 57 | 47 | 0.0 | 1.7 | 0.00 | 0.00 | 0.00 | 91 | 1012.3 |
| 20260507055503 | 56 | 47 | 0.0 | 1.7 | 0.00 | 0.00 | 0.00 | 91 | 1012.2 |
| 20260507055003 | 56 | 47 | 0.0 | 1.7 | 0.00 | 0.00 | 0.00 | 91 | 1012.4 |
| 20260507054503 | 56 | 47 | 0.0 | 1.7 | 0.00 | 0.00 | 0.00 | 90 | 1012.2 |
| 20260507054003 | 56 | 47 | 0.0 | 1.7 | 0.00 | 0.00 | 0.00 | 90 | 1012.1 |
| 20260507053503 | 55 | 47 | 0.0 | 1.7 | 0.00 | 0.00 | 0.00 | 90 | 1012.0 |
| 20260507053004 | 55 | 47 | 0.0 | 1.7 | 0.00 | 0.00 | 0.00 | 90 | 1011.9 |
| 20260507052503 | 55 | 47 | 0.0 | 1.7 | 0.00 | 0.00 | 0.00 | 90 | 1011.8 |
| 20260507052003 | 55 | 47 | 0.0 | 1.7 | 0.00 | 0.00 | 0.00 | 90 | 1011.9 |
| 20260507051503 | 55 | 47 | 0.0 | 1.7 | 0.00 | 0.00 | 0.00 | 90 | 1011.8 |
| 20260507051003 | 54 | 47 | 0.0 | 1.7 | 0.00 | 0.00 | 0.00 | 90 | 1011.8 |
| 20260507050503 | 54 | 47 | 0.0 | 1.7 | 0.00 | 0.00 | 0.00 | 90 | 1011.7 |
| 20260507050003 | 54 | 47 | 0.0 | 1.7 | 0.00 | 0.00 | 0.00 | 90 | 1011.6 |
| 20260507045503 | 54 | 47 | 0.0 | 1.7 | 0.00 | 0.00 | 0.00 | 90 | 1011.7 |
| 20260507045003 | 54 | 47 | 0.0 | 1.7 | 0.00 | 0.00 | 0.00 | 90 | 1011.6 |
| 20260507044503 | 54 | 47 | 0.0 | 1.7 | 0.00 | 0.00 | 0.00 | 90 | 1011.5 |
| 20260507044003 | 54 | 47 | 0.0 | 1.7 | 0.00 | 0.00 | 0.00 | 90 | 1011.4 |
| 20260507043503 | 54 | 47 | 0.0 | 1.7 | 0.00 | 0.00 | 0.00 | 90 | 1011.4 |
| 20260507043003 | 54 | 47 | 0.0 | 1.7 | 0.00 | 0.00 | 0.00 | 90 | 1011.4 |
| 20260507042503 | 54 | 47 | 0.0 | 1.7 | 0.00 | 0.00 | 0.00 | 90 | 1011.4 |
| 20260507042003 | 54 | 47 | 0.0 | 1.7 | 0.00 | 0.00 | 0.00 | 90 | 1011.3 |
| 20260507041503 | 54 | 47 | 0.0 | 1.7 | 0.00 | 0.00 | 0.00 | 90 | 1011.3 |
| 20260507041003 | 54 | 47 | 0.0 | 1.7 | 0.00 | 0.00 | 0.00 | 90 | 1011.1 |
| 20260507040504 | 54 | 47 | 0.0 | 1.7 | 0.00 | 0.00 | 0.00 | 90 | 1011.1 |
| 20260507040003 | 54 | 47 | 0.0 | 1.7 | 0.00 | 0.00 | 0.00 | 90 | 1011.1 |
| 20260507035503 | 54 | 47 | 0.0 | 1.7 | 0.00 | 0.00 | 0.00 | 90 | 1011.1 |
| 20260507035003 | 53 | 47 | 0.0 | 1.7 | 0.00 | 0.00 | 0.00 | 90 | 1011.0 |
| 20260507034503 | 53 | 47 | 0.0 | 1.7 | 0.00 | 0.00 | 0.00 | 89 | 1011.1 |
| 20260507034003 | 53 | 47 | 0.0 | 1.7 | 0.00 | 0.00 | 0.00 | 89 | 1011.1 |
| 20260507033503 | 53 | 47 | 0.0 | 1.7 | 0.00 | 0.00 | 0.00 | 89 | 1010.9 |
| 20260507033003 | 54 | 47 | 0.0 | 1.7 | 0.00 | 0.00 | 0.00 | 89 | 1011.0 |
| 20260507032503 | 54 | 47 | 0.0 | 1.7 | 0.00 | 0.00 | 0.00 | 89 | 1010.9 |
| 20260507032003 | 54 | 47 | 0.0 | 1.7 | 0.00 | 0.01 | 0.00 | 89 | 1011.1 |
| 20260507031503 | 54 | 47 | 0.0 | 1.7 | 0.00 | 0.01 | 0.00 | 89 | 1011.0 |
| 20260507031003 | 54 | 47 | 0.0 | 1.7 | 0.00 | 0.01 | 0.00 | 89 | 1011.0 |
| 20260507030503 | 54 | 47 | 0.0 | 1.7 | 0.00 | 0.01 | 0.00 | 89 | 1010.8 |
| 20260507030003 | 54 | 47 | 0.0 | 1.7 | 0.00 | 0.01 | 0.00 | 89 | 1010.9 |
| 20260507025503 | 54 | 47 | 0.0 | 1.7 | 0.00 | 0.01 | 0.00 | 89 | 1011.0 |
| 20260507025003 | 53 | 47 | 0.0 | 1.7 | 0.00 | 0.01 | 0.00 | 89 | 1010.9 |
| 20260507024503 | 53 | 47 | 0.0 | 1.7 | 0.00 | 0.01 | 0.00 | 89 | 1010.8 |
| 20260507024003 | 53 | 47 | 0.0 | 1.7 | 0.00 | 0.01 | 0.00 | 89 | 1010.9 |
| 20260507023503 | 54 | 47 | 0.0 | 1.7 | 0.00 | 0.01 | 0.00 | 89 | 1010.9 |
| 20260507023003 | 54 | 47 | 0.0 | 1.7 | 0.00 | 0.01 | 0.00 | 89 | 1010.8 |
| 20260507022503 | 54 | 47 | 0.0 | 1.7 | 0.00 | 0.01 | 0.00 | 89 | 1010.9 |
| 20260507022003 | 54 | 47 | 0.0 | 1.7 | 0.00 | 0.01 | 0.00 | 89 | 1010.8 |
| 20260507021503 | 54 | 47 | 0.0 | 1.7 | 0.00 | 0.01 | 0.00 | 89 | 1010.8 |
| 20260507021003 | 54 | 47 | 0.0 | 1.7 | 0.00 | 0.01 | 0.00 | 89 | 1010.6 |
| 20260507020503 | 54 | 47 | 0.0 | 1.7 | 0.00 | 0.01 | 0.00 | 89 | 1010.7 |
| 20260507020003 | 54 | 47 | 0.0 | 1.7 | 0.00 | 0.01 | 0.00 | 89 | 1010.9 |
| 20260507015503 | 54 | 47 | 0.0 | 1.7 | 0.00 | 0.01 | 0.00 | 89 | 1010.6 |
| 20260507015003 | 55 | 47 | 0.0 | 1.7 | 0.00 | 0.01 | 0.00 | 89 | 1010.6 |
| 20260507014503 | 55 | 47 | 0.0 | 1.7 | 0.00 | 0.01 | 0.00 | 89 | 1010.5 |